Uvalde, TX

12:34 PM CST on December 15, 2017 (GMT -0600)
Garner

Weather History for KUVA - July, 2013

Change the Weather History Date:

Thursday, July 25, 2013

  Actual Average (KHDO) Record (KHDO)
Temperature  
Mean Temperature 87 °F -  
Max Temperature 99 °F 93 °F 102 °F (1998)
Min Temperature 75 °F 70 °F 66 °F (1999)
Cooling Degree Days 22    
Growing Degree Days 37 (Base 50)    
Moisture  
Dew Point 70 °F    
Average Humidity 63    
Maximum Humidity 94    
Minimum Humidity 30    
Precipitation  
Precipitation 0.00 in - - ()
Sea Level Pressure  
Sea Level Pressure 30.00 in    
Wind  
Wind Speed 5 mph (ESE)    
Max Wind Speed 15 mph    
Max Gust Speed 20 mph    
Visibility 10 miles    
Events      
Averages and records for this station are not official NWS values.
T = Trace of Precipitation, MM = Missing Value Source: NWS Daily Summary

Daily Weather History Graph

Daily Weather History Graph

Search for Another Location

Airport or City:

Trip Planner

Search our weather history database for the weather conditions in past years. The results will help you decide how hot, cold, wet, or windy it might be!

Date:

Astronomy

Jul. 25, 2013 Rise Set
Actual Time 6:55 AM CDT 8:35 PM CDT
Civil Twilight 6:29 AM CDT 9:01 PM CDT
Nautical Twilight 5:58 AM CDT 9:32 PM CDT
Astronomical Twilight 5:25 AM CDT 10:05 PM CDT
Moon 10:40 PM CDT (7/25) 10:06 AM CDT (7/25)
Length of Visible Light 14h 31m
Length of Day
13h 39m
Waning Gibbous, 88% of the Moon is Illuminated
Jul 25
Waning Gibbous
Jul 29
Last Quarter
Aug 6
New
Aug 14
First Quarter
Aug 20
Full

Hourly Weather History & Observations

Time (CDT) Temp. Heat Index Dew Point Humidity Pressure Visibility Wind Dir Wind Speed Gust Speed Precip Events Conditions
1:35 AM 82.6 °F 87.8 °F 72.3 °F 71% 29.96 in 10.0 mi SE 13.8 mph 17.3 mph N/A   Clear
1:55 AM 81.9 °F 86.6 °F 72.0 °F 72% 29.98 in 10.0 mi SE 11.5 mph - N/A   Clear
2:15 AM 81.7 °F 86.5 °F 72.3 °F 73% 29.98 in 10.0 mi ESE 6.9 mph - N/A   Clear
2:35 AM 80.8 °F 85.1 °F 72.1 °F 75% 29.98 in 10.0 mi ESE 9.2 mph - N/A   Clear
2:55 AM 80.6 °F 84.7 °F 72.1 °F 75% 29.99 in 10.0 mi Calm Calm - N/A   Clear
3:15 AM 80.6 °F 85.0 °F 72.7 °F 77% 29.99 in 10.0 mi Calm Calm - N/A   Clear
3:35 AM 79.2 °F - 72.1 °F 79% 29.99 in 10.0 mi Calm Calm - N/A   Clear
3:55 AM 79.2 °F - 72.7 °F 80% 29.98 in 10.0 mi Calm Calm - N/A   Clear
4:15 AM 78.6 °F - 72.5 °F 81% 29.98 in 10.0 mi Calm Calm - N/A   Clear
4:35 AM 77.9 °F - 72.5 °F 83% 29.99 in 10.0 mi Calm Calm - N/A   Clear
4:55 AM 77.9 °F - 73.0 °F 85% 29.99 in 10.0 mi Calm Calm - N/A   Clear
5:15 AM 77.9 °F - 73.6 °F 86% 30.00 in 10.0 mi Calm Calm - N/A   Clear
5:35 AM 75.9 °F - 72.1 °F 88% 30.00 in 10.0 mi Calm Calm - N/A   Clear
5:55 AM 75.4 °F - 72.0 °F 89% 30.01 in 10.0 mi Calm Calm - N/A   Clear
6:15 AM 75.4 °F - 72.5 °F 91% 30.02 in 10.0 mi Calm Calm - N/A   Clear
6:35 AM 75.4 °F - 72.5 °F 91% 30.02 in 10.0 mi Calm Calm - N/A   Clear
6:55 AM 75.4 °F - 72.9 °F 92% 30.03 in 10.0 mi Calm Calm - N/A   Clear
7:15 AM 75.0 °F - 72.9 °F 93% 30.03 in 7.0 mi Calm Calm - N/A   Clear
7:35 AM 75.4 °F - 73.4 °F 94% 30.03 in 7.0 mi Calm Calm - N/A   Clear
7:55 AM 75.4 °F - 73.4 °F 94% 30.04 in 7.0 mi Calm Calm - N/A   Clear
11:35 AM 84.2 °F 89.9 °F 72.1 °F 67% 30.06 in 10.0 mi Calm Calm - N/A   Scattered Clouds
11:55 AM 85.5 °F 91.1 °F 71.8 °F 63% 30.06 in 10.0 mi Calm Calm - N/A   Scattered Clouds
12:15 PM 88.0 °F 95.6 °F 73.2 °F 61% 30.05 in 10.0 mi Calm Calm - N/A   Clear
12:35 PM 88.0 °F 94.2 °F 71.4 °F 58% 30.05 in 10.0 mi Calm Calm - N/A   Clear
12:55 PM 88.0 °F 91.8 °F 68.4 °F 52% 30.04 in 10.0 mi Calm Calm - N/A   Clear
1:15 PM 89.4 °F 94.0 °F 68.9 °F 51% 30.04 in 10.0 mi Calm Calm - N/A   Clear
5:55 PM 97.9 °F 98.8 °F 61.7 °F 30% 29.96 in 10.0 mi East 10.4 mph - N/A   Clear
6:15 PM 99.1 °F 100.8 °F 62.2 °F 30% 29.96 in 10.0 mi East 10.4 mph - N/A   Clear
6:35 PM 97.9 °F 99.8 °F 63.5 °F 32% 29.95 in 10.0 mi ESE 11.5 mph - N/A   Clear
6:55 PM 97.9 °F 100.9 °F 64.8 °F 34% 29.95 in 10.0 mi ESE 12.7 mph - N/A   Clear
7:15 PM 97.9 °F 99.8 °F 63.1 °F 32% 29.95 in 10.0 mi Calm Calm - N/A   Clear
7:35 PM 97.9 °F 99.8 °F 63.0 °F 32% 29.95 in 10.0 mi ESE 5.8 mph - N/A   Clear
7:55 PM 96.1 °F 97.8 °F 63.9 °F 34% 29.95 in 10.0 mi Calm Calm - N/A   Clear
8:35 PM 95.5 °F 98.4 °F 65.5 °F 37% 29.95 in 10.0 mi Calm Calm - N/A   Clear
8:55 PM 93.2 °F 95.3 °F 64.8 °F 39% 29.96 in 10.0 mi Calm Calm - N/A   Clear
9:15 PM 93.2 °F 96.2 °F 66.2 °F 41% 29.96 in 10.0 mi Calm Calm - N/A   Clear
9:35 PM 93.2 °F 96.7 °F 67.3 °F 42% 29.96 in 10.0 mi Calm Calm - N/A   Clear
9:55 PM 90.5 °F 93.3 °F 66.2 °F 45% 29.97 in 10.0 mi Calm Calm - N/A   Clear
10:15 PM 90.5 °F 92.5 °F 65.5 °F 43% 29.98 in 10.0 mi Calm Calm - N/A   Clear
10:35 PM 90.5 °F 95.5 °F 69.3 °F 50% 29.99 in 10.0 mi SE 9.2 mph 19.6 mph N/A   Clear
10:55 PM 89.4 °F 95.8 °F 71.1 °F 55% 30.00 in 10.0 mi Calm Calm - N/A   Clear
11:15 PM 88.0 °F 93.4 °F 70.7 °F 56% 30.01 in 10.0 mi SE 13.8 mph 18.4 mph N/A   Clear
11:35 PM 88.0 °F 94.2 °F 71.6 °F 58% 30.02 in 10.0 mi SE 15.0 mph 19.6 mph N/A   Clear
11:55 PM 88.0 °F 95.1 °F 72.5 °F 60% 30.02 in 10.0 mi SE 13.8 mph - N/A   Clear